Location: Grasslands National Park East Block
(49.0708°N, 106.5295°W)
Time: 19:11:47
(UTC-06:00)

Vanguard 1 - Pass Details

Date: 26 September 2019
Orbit: 653 x 3830 km, 34.2° (Epoch: 18 October)

Event Time Altitude Azimuth Distance (km) Brightness Sun altitude
Rises 02:36:02 0° 239° (WSW) 7,444 - -37.7°
Reaches altitude 10° 02:40:59 10° 234° (SW) 6,659 - -37.2°
Exits shadow 02:58:20 47° 192° (SSW) 4,555 12.9 -35.6°
Maximum altitude 03:02:29 50° 169° (SSE) 4,367 12.9 -35.2°
Drops below altitude 10° 03:20:49 10° 102° (ESE) 5,793 14.3 -33.2°
Sets 03:24:44 0° 97° (E) 6,462 14.7 -32.7°
